Flag for Slovakia Weather past 2 weeks in Piešťany, Slovakia

Now
50 °F

Scattered clouds.


Feels Like: 47 °F
Forecast: 37 / 56 °F
Wind: 7 mph from North

Location: Piestany

Current Time: Apr 19, 2015 at 12:40:08 PM

Latest Report: Apr 19, 2015 at 12:00 PM


Visibility: N/A

Pressure: 30.18 "Hg

Humidity: 37%

Dew point: 25 °F

Location of PiešťanyLocation

Historic Weather in Piešťany — Graph

°F

Piešťany temperature yesterday

Maximum temperature yesterday: 50 °F (at 1:30 PM)
Minimum temperature yesterday: 34 °F (at 11:00 PM)
Average temperature yesterday: 44 °F

Past Weeks' High & Low Weather Summary

 TemperatureHumidityPressure
High77 °F (Apr 16, 1:30 PM)93% (Apr 5, 2:00 AM)30.45 "Hg (Apr 5, 2:00 AM)
Low27 °F (Apr 6, 4:00 AM)22% (Apr 16, 2:30 PM)29.80 "Hg (Apr 16, 7:00 PM)
Average48 °F62%30.17 "Hg
* Reported Apr 4 11:00 AM — Apr 19 11:30 AM, Piešťany, Weather by CustomWeather, © 2015

Note: Actual official high and low records may vary slightly from our data, if they occured in-between our weather recording intervals... More about our weather records

Advertising

Piešťany weather history for previous 24 hours

 ConditionsComfort  
Time TempWeatherWind HumidityBarometerVisibility
11:30 AM
Sun, Apr 19
52 °FScattered clouds.8 mph41%30.18 "HgN/A
11:00 AM50 °FPassing clouds.5 mph43%30.18 "HgN/A
10:30 AM48 °FPassing clouds.8 mph50%30.18 "HgN/A
10:00 AM46 °FPassing clouds.6 mph57%30.18 "HgN/A
9:30 AM45 °FPassing clouds.5 mph57%30.21 "HgN/A
9:00 AM43 °FPassing clouds.5 mph66%30.18 "HgN/A
8:30 AM41 °FSunny.5 mph70%30.21 "Hg10 mi
8:00 AM37 °FSunny.3 mph87%30.18 "Hg10 mi
7:30 AM34 °FSunny.2 mph93%30.18 "Hg10 mi
7:00 AM30 °FSunny.2 mph93%30.18 "Hg10 mi
6:30 AM30 °FClear.2 mph93%30.18 "Hg10 mi
6:00 AM28 °FClear.No wind93%30.18 "Hg10 mi
5:30 AM28 °FPassing clouds.1 mph93%30.18 "HgN/A
5:00 AM28 °FOvercast.1 mph93%30.18 "Hg4 mi
4:30 AM28 °FChilly.1 mph93%30.18 "HgN/A
4:00 AM28 °FChilly.2 mph93%30.18 "HgN/A
3:30 AM28 °FChilly.1 mph86%30.18 "HgN/A
3:00 AM32 °FChilly.3 mph87%30.18 "HgN/A
2:30 AM30 °FChilly.1 mph86%30.18 "HgN/A
2:00 AM30 °FChilly.1 mph93%30.18 "HgN/A
1:30 AM28 °FChilly.3 mph86%30.21 "HgN/A
1:00 AM32 °FChilly.1 mph80%30.18 "HgN/A
12:30 AM32 °FChilly.3 mph80%30.21 "HgN/A
12:00 AM32 °FChilly.2 mph87%30.21 "HgN/A
11:30 PM
Sat, Apr 18
34 °FChilly.1 mph81%30.21 "HgN/A
11:00 PM34 °FChilly.No wind81%30.21 "HgN/A
10:30 PM36 °FChilly.1 mph75%30.18 "HgN/A
10:00 PM37 °FClear.1 mph65%30.18 "Hg10 mi
9:30 PM39 °FClear.1 mph61%30.18 "Hg10 mi
9:00 PM41 °FClear.5 mph53%30.18 "Hg10 mi
8:30 PM41 °FSunny.6 mph53%30.18 "Hg10 mi
8:00 PM43 °FSunny.7 mph49%30.15 "Hg10 mi
7:30 PM43 °FSunny.12 mph49%30.15 "Hg10 mi
7:00 PM46 °FPassing clouds.15 mph40%30.15 "HgN/A
6:30 PM46 °FPassing clouds.21 mph43%30.12 "HgN/A
6:00 PM46 °FScattered clouds.20 mph43%30.12 "HgN/A
5:30 PM46 °FScattered clouds.22 mph46%30.12 "HgN/A
5:00 PM48 °FPartly sunny.20 mph46%30.12 "HgN/A
4:30 PM46 °FPartly sunny.16 mph46%30.12 "HgN/A
4:00 PM48 °FPartly sunny.20 mph43%30.12 "HgN/A
3:30 PM48 °FScattered clouds.18 mph43%30.12 "HgN/A
3:00 PM48 °FScattered clouds.21 mph40%30.12 "HgN/A
2:30 PM50 °FPassing clouds.23 mph37%30.12 "HgN/A
2:00 PM48 °FPassing clouds.21 mph40%30.12 "HgN/A
1:30 PM50 °FPassing clouds.22 mph37%30.09 "HgN/A
1:00 PM48 °FPassing clouds.20 mph43%30.09 "HgN/A
12:30 PM48 °FPassing clouds.20 mph54%30.09 "HgN/A
12:00 PM48 °FPassing clouds.21 mph58%30.09 "HgN/A
Weather by CustomWeather, © 2015

See weather overviewHow to use our weather pages